Terminal Aerodrome Forecast
Issued by NWS

Home | Current Version | Previous Version | Text Only | Print | Product List | Glossary On
Versions: 1 2 3 4 5 6 7 8 9 10 11 12 13 14 15 16 17 18 19 20 21 22 23 24 25 26 27 28 29 30 31 32 33 34 35 36 37 38 39 40
000
FTUS42 KJAX 271100
TAFVQQ
TAF
KVQQ 271121Z 2712/2812 VRB03KT P6SM SKC WS010/27035KT
     FM271400 30012G20KT P6SM FEW030
     FM272300 30004KT P6SM SKC=

USA.gov is the U.S. government's official web portal to all federal, state and local government web resources and services.